Weather History for Benson, United Kingdom

Change the Weather History Date:

Wednesday, December 5, 2012

  Actual Average Record
Temperature  
Mean Temperature 31 °F -  
Max Temperature 38 °F 44 °F 57 °F (2001)
Min Temperature 24 °F 36 °F 23 °F (2013)
Degree Days  
Heating Degree Days 34    
Moisture  
Dew Point 28 °F    
Average Humidity 84    
Maximum Humidity 100    
Minimum Humidity 57    
Precipitation  
Precipitation 0.08 in - - ()
Sea Level Pressure  
Sea Level Pressure 29.80 in    
Wind  
Wind Speed 5 mph ()    
Max Wind Speed 10 mph    
Max Gust Speed -    
Visibility 7.1 miles    
Events Rain    
Averages and records for this station are not official NWS values.
T = Trace of Precipitation, MM = Missing Value Source: Averaged Metar Reports

Daily Weather History Graph

Daily Weather History Graph

Search for Another Location

Airport:

Trip Planner

Search our weather history database for the weather conditions in past years. The results will help you decide how hot, cold, wet, or windy it might be!

Date:

Astronomy

Dec. 05, 2012 Rise Set
Actual Time 7:54 AM GMT 3:56 PM GMT
Civil Twilight 7:14 AM GMT 4:35 PM GMT
Nautical Twilight 6:31 AM GMT 5:18 PM GMT
Astronomical Twilight 5:51 AM GMT 5:59 PM GMT
Moon 11:05 PM GMT (12/5) 11:39 AM GMT (12/5)
Length of Visible Light 9h 21m
Length of Day
8h 02m
Waning Gibbous, 62% of the Moon is Illuminated
Dec 5
Waning Gibbous
Dec 6
Last Quarter
Dec 13
New
Dec 20
First Quarter
Dec 28
Full

Hourly Weather History & Observations

Time (GMT) Temp. Windchill Dew Point Humidity Pressure Visibility Wind Dir Wind Speed Gust Speed Precip Events Conditions
12:50 AM 30.2 °F 25.4 °F 28.4 °F 93% 29.59 in 6.2 mi SSE 4.6 mph - N/A   Partly Cloudy
1:50 AM 24.8 °F 20.5 °F 23.0 °F 93% 29.59 in 6.2 mi South 3.5 mph - N/A   Unknown
2:50 AM 24 °F - 23 °F 95% 29.62 in 3 mi South 1.2 mph - -   Mist
2:50 AM 24.8 °F - 23.0 °F 93% 29.59 in 3.1 mi South 1.2 mph - N/A   Partly Cloudy
3:50 AM 28.4 °F - 28.4 °F 100% 29.59 in 6.2 mi Calm Calm - N/A   Mostly Cloudy
4:50 AM 32.0 °F - 30.2 °F 93% 29.62 in 4.3 mi Calm Calm - N/A   Mostly Cloudy
5:50 AM 32 °F - 31 °F 95% 29.67 in 2 mi West 2.3 mph - -   Light Freezing Rain
5:50 AM 32.0 °F - 32.0 °F 100% 29.65 in 2.5 mi West 2.3 mph - N/A Rain Rain
6:50 AM 32.0 °F - 32.0 °F 100% 29.65 in 2.5 mi West 2.3 mph - N/A   Overcast
7:50 AM 33.8 °F 25.8 °F 33.8 °F 100% 29.71 in 1.2 mi NNW 10.4 mph - N/A   Overcast
8:50 AM 35 °F - 33 °F 91% 29.77 in 4 mi North 9.2 mph - - Rain Light Rain
8:50 AM 33.8 °F 26.4 °F 33.8 °F 100% 29.74 in 4.3 mi North 9.2 mph - N/A Rain Light Rain
9:50 AM 35.6 °F 30.7 °F 32.0 °F 87% 29.77 in 6.2 mi NNW 5.8 mph - N/A   Mostly Cloudy
10:50 AM 35.6 °F 29.2 °F 32.0 °F 87% 29.80 in 6.2 mi NNW 8.1 mph - N/A   Partly Cloudy
11:50 AM 37 °F - 31 °F 72% 29.82 in 16 mi NW 8.1 mph - -   Partly Cloudy
11:50 AM 37.4 °F 31.4 °F 32.0 °F 81% 29.80 in 6.2 mi NW 8.1 mph - N/A   Partly Cloudy
12:50 PM 37.4 °F 30.3 °F 30.2 °F 75% 29.80 in 6.2 mi NW 10.4 mph - N/A   Partly Cloudy
2:50 PM 38 °F - 28 °F 57% 29.85 in 19 mi NW 10.4 mph - -   Scattered Clouds
2:50 PM 39.2 °F 32.5 °F 28.4 °F 65% 29.83 in 6.2 mi NW 10.4 mph - N/A   Partly Cloudy
3:50 PM 37.4 °F 32.1 °F 28.4 °F 70% 29.86 in 6.2 mi WNW 6.9 mph - N/A   Partly Cloudy
4:50 PM 33.8 °F 29.6 °F 26.6 °F 75% 29.89 in 6.2 mi NNW 4.6 mph - N/A   Partly Cloudy
5:50 PM 36 °F - 27 °F 60% 29.93 in 19 mi NNW 9.2 mph - -   Partly Cloudy
5:50 PM 35.6 °F 28.6 °F 26.6 °F 70% 29.92 in 6.2 mi NNW 9.2 mph - N/A   Scattered Clouds
6:50 PM 33.8 °F 27.0 °F 26.6 °F 75% 29.92 in - NW 8.1 mph - N/A   Clear
7:50 PM 32.0 °F 26.4 °F 26.6 °F 80% 29.95 in - NW 5.8 mph - N/A   Clear
8:50 PM 31 °F - 27 °F 77% 29.99 in 16 mi WNW 5.8 mph - -  
8:50 PM 32.0 °F 26.4 °F 26.6 °F 80% 29.95 in - WNW 5.8 mph - N/A   Clear
9:50 PM 30.2 °F 24.3 °F 26.6 °F 86% 29.98 in - WNW 5.8 mph - N/A   Clear
10:50 PM 26.6 °F - 23.0 °F 86% 30.01 in - North 1.2 mph - N/A   Clear
11:50 PM 29 °F - 26 °F 84% 30.04 in 12 mi NW 4.6 mph - -  
11:50 PM 28.4 °F 23.3 °F 26.6 °F 93% 30.01 in - NW 4.6 mph - N/A   Clear